Portada
METAR-TAF:

METAR-TAF

Aeroports :

Beverly, Massachusetts, Estats Units d'Amèrica

latitud: 42-35-01N, longitud: 070-54-59W, altitud: 33 m

Observació

L'informe es va fer fa 1 hora i 4 minuts, a les 11:53 UTC
Vent 3 kt del Nord
Temperatura 16°C
Humitat 94%
Pressió 1024 hPa
Visibilitat: 16.1 km
Cel clar

METAR: KBVY 221153Z 35003KT 10SM CLR 16/15 A3024 RMK AO2 SLP236 T01560150 10172 20139 53016

Hora: 08:57 (12:57 UTC)


TAF: manca

Observacions i pronòstics meteorològics de més de 4000 aeroports (METAR i TAF).

Les estacions disponibles són els punts grocs i vermells al mapa.

Posi el ratolí al punt desitjat per veure el nom de l'estació.

Feu clic per veure les observacions i els pronòstics meteorològics.

Per canviar el mapa: feu clic els botons verds amb una creu de color negre per apropar; al botó verd amb un guió per allunyar la imatge; o en les fletxes verdes per a mapes adjacents.


METAR-TAF: